| time (UTC) | temp C | wind direction | speed KPH | gust KPH | rain 1hr cm | rain 24hr cm | rain mn cm | humidity % | barometer mb |
| 20260505083705 | 21 | 338 | 1.6 | 9.7 | 0.00 | 0.00 | 0.00 | 65 | 1007.8 |
| 20260505083205 | 21 | 113 | 1.6 | 4.8 | 0.00 | 0.00 | 0.00 | 63 | 1007.8 |
| 20260505082704 | 20 | 355 | 0.0 | 4.8 | 0.00 | 0.00 | 0.00 | 61 | 1007.9 |
| 20260505082205 | 20 | 53 | 0.0 | 4.8 | 0.00 | 0.00 | 0.00 | 68 | 1008.0 |
| 20260505081705 | 20 | 57 | 0.0 | 4.8 | 0.00 | 0.00 | 0.00 | 66 | 1008.1 |
| 20260505081205 | 20 | 58 | 0.0 | 4.8 | 0.00 | 0.00 | 0.00 | 66 | 1008.1 |
| 20260505080705 | 20 | 14 | 0.0 | 4.8 | 0.00 | 0.00 | 0.00 | 68 | 1008.1 |
| 20260505080205 | 19 | 14 | 0.0 | 12.9 | 0.00 | 0.00 | 0.00 | 69 | 1008.1 |
| 20260505075705 | 19 | 102 | 3.2 | 12.9 | 0.00 | 0.00 | 0.00 | 68 | 1008.1 |
| 20260505075206 | 19 | 58 | 3.2 | 12.9 | 0.00 | 0.00 | 0.00 | 68 | 1008.2 |
| 20260505074705 | 19 | 5 | 1.6 | 8.0 | 0.00 | 0.00 | 0.00 | 71 | 1008.2 |
| 20260505074205 | 19 | 27 | 0.0 | 6.4 | 0.00 | 0.00 | 0.00 | 71 | 1008.2 |
| 20260505073704 | 18 | 27 | 0.0 | 0.0 | 0.00 | 0.00 | 0.00 | 70 | 1008.3 |
| 20260505073205 | 18 | 36 | 0.0 | 8.0 | 0.00 | 0.00 | 0.00 | 71 | 1008.3 |
| 20260505072705 | 18 | 5 | 1.6 | 8.0 | 0.00 | 0.00 | 0.00 | 74 | 1008.4 |
| 20260505072205 | 18 | 355 | 1.6 | 8.0 | 0.00 | 0.00 | 0.00 | 73 | 1008.5 |
| 20260505071705 | 18 | 11 | 1.6 | 6.4 | 0.00 | 0.00 | 0.00 | 73 | 1008.5 |
| 20260505071205 | 17 | 63 | 0.0 | 6.4 | 0.00 | 0.00 | 0.00 | 75 | 1008.5 |
| 20260505070705 | 17 | 17 | 1.6 | 6.4 | 0.00 | 0.00 | 0.00 | 75 | 1008.5 |
| 20260505070224 | 17 | 96 | 0.0 | 4.8 | 0.00 | 0.00 | 0.00 | 75 | 1008.7 |
| 20260505065705 | 17 | 87 | 0.0 | 3.2 | 0.00 | 0.00 | 0.00 | 77 | 1008.7 |
| 20260505065205 | 17 | 134 | 0.0 | 3.2 | 0.00 | 0.00 | 0.00 | 78 | 1008.7 |
| 20260505064705 | 16 | 135 | 0.0 | 1.6 | 0.00 | 0.00 | 0.00 | 79 | 1008.7 |
| 20260505063205 | 16 | 32 | 0.0 | 0.0 | 0.00 | 0.00 | 0.00 | 79 | 1008.7 |
| 20260505062708 | 16 | 13 | 0.0 | 0.0 | 0.00 | 0.00 | 0.00 | 81 | 1008.7 |
| 20260505062205 | 16 | 13 | 0.0 | 6.4 | 0.00 | 0.00 | 0.00 | 81 | 1008.8 |
| 20260505061705 | 16 | 13 | 0.0 | 6.4 | 0.00 | 0.00 | 0.00 | 80 | 1008.8 |
| 20260505061205 | 16 | 14 | 1.6 | 6.4 | 0.00 | 0.00 | 0.00 | 81 | 1008.8 |
| 20260505060208 | 15 | 104 | 0.0 | 0.0 | 0.00 | 0.00 | 0.00 | 83 | 1008.8 |
| 20260505055705 | 15 | 107 | 0.0 | 0.0 | 0.00 | 0.00 | 0.00 | 86 | 1008.8 |
| 20260505055205 | 15 | 10 | 0.0 | 0.0 | 0.00 | 0.00 | 0.00 | 87 | 1008.9 |
| 20260505054705 | 14 | 10 | 0.0 | 1.6 | 0.00 | 0.00 | 0.00 | 87 | 1008.9 |
| 20260505054205 | 14 | 10 | 0.0 | 1.6 | 0.00 | 0.00 | 0.00 | 87 | 1008.8 |
| 20260505053205 | 14 | 63 | 0.0 | 6.4 | 0.00 | 0.00 | 0.00 | 89 | 1008.9 |
| 20260505052705 | 13 | 63 | 0.0 | 6.4 | 0.00 | 0.00 | 0.00 | 89 | 1008.8 |
| 20260505052205 | 13 | 63 | 0.0 | 1.6 | 0.00 | 0.00 | 0.00 | 90 | 1008.8 |
| 20260505051227 | 13 | 46 | 0.0 | 8.0 | 0.00 | 0.00 | 0.00 | 91 | 1008.8 |
| 20260505050705 | 12 | 46 | 0.0 | 0.0 | 0.00 | 0.00 | 0.00 | 91 | 1008.7 |
| 20260505050216 | 12 | 302 | 0.0 | 0.0 | 0.00 | 0.00 | 0.00 | 91 | 1008.8 |
| 20260505041706 | 13 | 302 | 0.0 | 0.0 | 0.00 | 0.00 | 0.00 | 90 | 1008.9 |
| 20260505041212 | 13 | 302 | 0.0 | 0.0 | 0.00 | 0.00 | 0.00 | 90 | 1009.0 |
| 20260505040705 | 13 | 302 | 0.0 | 0.0 | 0.00 | 0.00 | 0.00 | 90 | 1008.9 |
| 20260505040209 | 13 | 302 | 0.0 | 0.0 | 0.00 | 0.00 | 0.00 | 90 | 1009.0 |
| 20260505035725 | 13 | 302 | 0.0 | 0.0 | 0.00 | 0.00 | 0.00 | 90 | 1009.1 |
| 20260505035234 | 13 | 302 | 0.0 | 0.0 | 0.00 | 0.00 | 0.00 | 90 | 1009.1 |
| 20260505034708 | 13 | 302 | 0.0 | 0.0 | 0.00 | 0.00 | 0.00 | 90 | 1009.2 |
| 20260505034212 | 13 | 302 | 0.0 | 0.0 | 0.00 | 0.00 | 0.00 | 90 | 1009.2 |
| 20260505033710 | 13 | 302 | 0.0 | 0.0 | 0.00 | 0.00 | 0.00 | 90 | 1009.3 |
| 20260505033211 | 13 | 302 | 0.0 | 0.0 | 0.00 | 0.00 | 0.00 | 90 | 1009.2 |
| 20260505032707 | 13 | 302 | 0.0 | 0.0 | 0.00 | 0.00 | 0.00 | 90 | 1009.2 |
| 20260505031710 | 13 | 355 | 0.0 | 0.0 | 0.00 | 0.00 | 0.00 | 90 | 1009.3 |
| 20260505031221 | 13 | 355 | 0.0 | 0.0 | 0.00 | 0.00 | 0.00 | 90 | 1009.3 |
| 20260505030706 | 13 | 355 | 0.0 | 0.0 | 0.00 | 0.00 | 0.00 | 90 | 1009.3 |
| 20260505030205 | 13 | 355 | 0.0 | 0.0 | 0.00 | 0.00 | 0.00 | 90 | 1009.2 |
| 20260505025846 | 13 | 355 | 0.0 | 0.0 | 0.00 | 0.00 | 0.00 | 89 | 1009.3 |
| 20260505025748 | 13 | 355 | 0.0 | 0.0 | 0.00 | 0.00 | 0.00 | 89 | 1009.4 |
| 20260505025744 | 13 | 355 | 0.0 | 0.0 | 0.00 | 0.00 | 0.00 | 89 | 1009.3 |
| 20260505024205 | 13 | 355 | 0.0 | 0.0 | 0.00 | 0.00 | 0.00 | 89 | 1009.4 |
| 20260505023205 | 13 | 355 | 0.0 | 0.0 | 0.00 | 0.00 | 0.00 | 89 | 1009.6 |
| 20260505022706 | 13 | 355 | 0.0 | 0.0 | 0.00 | 0.00 | 0.00 | 89 | 1009.7 |
| 20260505022205 | 13 | 351 | 0.0 | 0.0 | 0.00 | 0.00 | 0.00 | 89 | 1009.9 |
| 20260505021705 | 13 | 351 | 0.0 | 0.0 | 0.00 | 0.00 | 0.00 | 88 | 1010.1 |
| 20260505021205 | 13 | 351 | 0.0 | 0.0 | 0.00 | 0.00 | 0.00 | 88 | 1010.2 |
| 20260505020705 | 13 | 355 | 0.0 | 0.0 | 0.00 | 0.00 | 0.00 | 88 | 1010.3 |
| 20260505020205 | 13 | 355 | 0.0 | 0.0 | 0.00 | 0.00 | 0.00 | 88 | 1010.3 |
| 20260505015705 | 13 | 321 | 0.0 | 0.0 | 0.00 | 0.00 | 0.00 | 88 | 1010.4 |
| 20260505014705 | 14 | 355 | 0.0 | 0.0 | 0.00 | 0.00 | 0.00 | 87 | 1010.3 |
| 20260505013205 | 14 | 355 | 0.0 | 0.0 | 0.00 | 0.00 | 0.00 | 87 | 1010.3 |
| 20260505012705 | 14 | 355 | 0.0 | 0.0 | 0.00 | 0.00 | 0.00 | 86 | 1010.4 |
| 20260505012205 | 14 | 355 | 0.0 | 0.0 | 0.00 | 0.00 | 0.00 | 86 | 1010.4 |
| 20260505011705 | 14 | 355 | 0.0 | 0.0 | 0.00 | 0.00 | 0.00 | 86 | 1010.3 |
| 20260505011205 | 14 | 355 | 0.0 | 0.0 | 0.00 | 0.00 | 0.00 | 86 | 1010.3 |
| 20260505010205 | 13 | 355 | 0.0 | 0.0 | 0.00 | 0.00 | 0.00 | 86 | 1010.3 |
| 20260505005705 | 13 | 355 | 0.0 | 0.0 | 0.00 | 0.00 | 0.00 | 86 | 1010.2 |
| 20260505005205 | 13 | 355 | 0.0 | 0.0 | 0.00 | 0.00 | 0.00 | 86 | 1010.2 |
| 20260505004705 | 13 | 355 | 0.0 | 0.0 | 0.00 | 0.00 | 0.00 | 85 | 1010.3 |
| 20260505004205 | 13 | 355 | 0.0 | 0.0 | 0.00 | 0.00 | 0.00 | 85 | 1010.3 |
| 20260505003705 | 13 | 355 | 0.0 | 0.0 | 0.00 | 0.00 | 0.00 | 85 | 1010.3 |
| 20260505003205 | 13 | 355 | 0.0 | 0.0 | 0.00 | 0.00 | 0.00 | 85 | 1010.3 |
| 20260505002205 | 13 | 355 | 0.0 | 0.0 | 0.00 | 0.00 | 0.00 | 86 | 1010.4 |
| 20260505001705 | 13 | 355 | 0.0 | 0.0 | 0.00 | 0.00 | 0.00 | 86 | 1010.4 |
| 20260505001205 | 13 | 355 | 0.0 | 0.0 | 0.00 | 0.00 | 0.00 | 86 | 1010.4 |
| 20260505000205 | 13 | 355 | 0.0 | 0.0 | 0.00 | 0.00 | 0.00 | 86 | 1010.4 |
| 20260504235705 | 13 | 355 | 0.0 | 0.0 | 0.00 | 0.00 | 0.00 | 85 | 1010.4 |
| 20260504234705 | 13 | 355 | 0.0 | 0.0 | 0.00 | 0.00 | 0.00 | 85 | 1010.4 |
| 20260504234205 | 13 | 355 | 0.0 | 0.0 | 0.00 | 0.00 | 0.00 | 85 | 1010.5 |
| 20260504233705 | 13 | 355 | 0.0 | 0.0 | 0.00 | 0.00 | 0.00 | 85 | 1010.6 |
| 20260504232704 | 13 | 355 | 0.0 | 0.0 | 0.00 | 0.00 | 0.00 | 85 | 1010.6 |
| 20260504232205 | 13 | 355 | 0.0 | 0.0 | 0.00 | 0.00 | 0.00 | 85 | 1010.7 |
| 20260504231725 | 13 | 355 | 0.0 | 0.0 | 0.00 | 0.00 | 0.00 | 85 | 1010.7 |
| 20260504231205 | 13 | 355 | 0.0 | 0.0 | 0.00 | 0.00 | 0.00 | 85 | 1010.7 |
| 20260504230705 | 13 | 320 | 0.0 | 0.0 | 0.00 | 0.00 | 0.00 | 85 | 1010.9 |
| 20260504230206 | 13 | 320 | 0.0 | 0.0 | 0.00 | 0.00 | 0.00 | 84 | 1010.9 |
| 20260504224206 | 13 | 320 | 0.0 | 0.0 | 0.00 | 0.00 | 0.00 | 84 | 1011.0 |
| 20260504223705 | 13 | 320 | 0.0 | 0.0 | 0.00 | 0.00 | 0.00 | 84 | 1011.0 |
| 20260504222705 | 13 | 320 | 0.0 | 0.0 | 0.00 | 0.00 | 0.00 | 84 | 1011.1 |
| 20260504221722 | 13 | 320 | 0.0 | 0.0 | 0.00 | 0.00 | 0.00 | 84 | 1011.0 |
| 20260504220705 | 13 | 319 | 0.0 | 0.0 | 0.00 | 0.00 | 0.00 | 84 | 1011.2 |
| 20260504220205 | 13 | 320 | 0.0 | 0.0 | 0.00 | 0.00 | 0.00 | 84 | 1011.1 |
| 20260504215705 | 13 | 319 | 0.0 | 0.0 | 0.00 | 0.00 | 0.00 | 84 | 1011.1 |
| 20260504214705 | 13 | 320 | 0.0 | 0.0 | 0.00 | 0.00 | 0.00 | 84 | 1011.2 |
| 20260504214205 | 13 | 320 | 0.0 | 0.0 | 0.00 | 0.00 | 0.00 | 83 | 1011.2 |
| 20260504213705 | 14 | 320 | 0.0 | 0.0 | 0.00 | 0.00 | 0.00 | 83 | 1011.1 |
| 20260504213206 | 14 | 320 | 0.0 | 0.0 | 0.00 | 0.00 | 0.00 | 83 | 1011.1 |
| 20260504212205 | 14 | 320 | 0.0 | 0.0 | 0.00 | 0.00 | 0.00 | 82 | 1011.1 |
| 20260504211205 | 14 | 320 | 0.0 | 0.0 | 0.00 | 0.00 | 0.00 | 82 | 1011.1 |
| 20260504210705 | 14 | 320 | 0.0 | 0.0 | 0.00 | 0.00 | 0.00 | 82 | 1011.1 |
| 20260504210205 | 14 | 320 | 0.0 | 0.0 | 0.00 | 0.00 | 0.00 | 82 | 1011.1 |
| 20260504205705 | 14 | 320 | 0.0 | 0.0 | 0.00 | 0.00 | 0.00 | 81 | 1011.2 |
| 20260504205206 | 14 | 320 | 0.0 | 0.0 | 0.00 | 0.00 | 0.00 | 81 | 1011.1 |
| 20260504204705 | 15 | 320 | 0.0 | 0.0 | 0.00 | 0.00 | 0.00 | 81 | 1011.1 |
| 20260504204205 | 15 | 320 | 0.0 | 0.0 | 0.00 | 0.00 | 0.00 | 80 | 1011.1 |
| 20260504203706 | 15 | 320 | 0.0 | 0.0 | 0.00 | 0.00 | 0.00 | 80 | 1011.1 |
| 20260504203206 | 15 | 320 | 0.0 | 0.0 | 0.00 | 0.00 | 0.00 | 79 | 1011.2 |
| 20260504202205 | 15 | 320 | 0.0 | 0.0 | 0.00 | 0.00 | 0.00 | 79 | 1011.2 |
| 20260504201704 | 15 | 320 | 0.0 | 0.0 | 0.00 | 0.00 | 0.00 | 79 | 1011.2 |
| 20260504201229 | 15 | 320 | 0.0 | 0.0 | 0.00 | 0.00 | 0.00 | 78 | 1011.2 |
| 20260504200705 | 15 | 320 | 0.0 | 0.0 | 0.00 | 0.00 | 0.00 | 78 | 1011.3 |
| 20260504200205 | 15 | 320 | 0.0 | 0.0 | 0.00 | 0.00 | 0.00 | 78 | 1011.3 |
| 20260504195205 | 16 | 320 | 0.0 | 0.0 | 0.00 | 0.00 | 0.00 | 77 | 1011.3 |
| 20260504194207 | 16 | 320 | 0.0 | 0.0 | 0.00 | 0.00 | 0.00 | 75 | 1011.3 |
| 20260504193706 | 16 | 320 | 0.0 | 0.0 | 0.00 | 0.00 | 0.00 | 75 | 1011.3 |
| 20260504193205 | 16 | 320 | 0.0 | 0.0 | 0.00 | 0.00 | 0.00 | 75 | 1011.3 |
| 20260504192705 | 16 | 320 | 0.0 | 0.0 | 0.00 | 0.00 | 0.00 | 74 | 1011.3 |
| 20260504192205 | 16 | 320 | 0.0 | 0.0 | 0.00 | 0.00 | 0.00 | 74 | 1011.3 |
| 20260504191705 | 16 | 320 | 0.0 | 0.0 | 0.00 | 0.00 | 0.00 | 73 | 1011.2 |
| 20260504191205 | 16 | 320 | 0.0 | 0.0 | 0.00 | 0.00 | 0.00 | 72 | 1011.2 |
| 20260504190705 | 17 | 320 | 0.0 | 0.0 | 0.00 | 0.00 | 0.00 | 71 | 1011.1 |
| 20260504190205 | 17 | 320 | 0.0 | 0.0 | 0.00 | 0.00 | 0.00 | 71 | 1011.1 |
| 20260504185706 | 17 | 320 | 0.0 | 0.0 | 0.00 | 0.00 | 0.00 | 70 | 1011.1 |
| 20260504185206 | 17 | 320 | 0.0 | 0.0 | 0.00 | 0.00 | 0.00 | 69 | 1011.1 |
| 20260504184708 | 17 | 320 | 0.0 | 0.0 | 0.00 | 0.00 | 0.00 | 69 | 1011.1 |
| 20260504184205 | 18 | 320 | 0.0 | 0.0 | 0.00 | 0.00 | 0.00 | 69 | 1011.1 |
| 20260504183705 | 18 | 320 | 0.0 | 0.0 | 0.00 | 0.00 | 0.00 | 68 | 1011.1 |
| 20260504183206 | 18 | 320 | 0.0 | 0.0 | 0.00 | 0.00 | 0.00 | 65 | 1011.1 |
| 20260504182705 | 18 | 320 | 0.0 | 0.0 | 0.00 | 0.00 | 0.00 | 65 | 1011.1 |
| 20260504182205 | 18 | 320 | 0.0 | 0.0 | 0.00 | 0.00 | 0.00 | 64 | 1011.2 |
| 20260504181205 | 19 | 320 | 0.0 | 0.0 | 0.00 | 0.00 | 0.00 | 63 | 1011.2 |
| 20260504180705 | 20 | 320 | 0.0 | 0.0 | 0.00 | 0.00 | 0.00 | 61 | 1011.2 |
| 20260504180205 | 20 | 320 | 0.0 | 0.0 | 0.00 | 0.00 | 0.00 | 60 | 1011.2 |
| 20260504175705 | 20 | 320 | 0.0 | 0.0 | 0.00 | 0.00 | 0.00 | 60 | 1011.2 |
| 20260504175205 | 20 | 320 | 0.0 | 0.0 | 0.00 | 0.00 | 0.00 | 58 | 1011.1 |
| 20260504174705 | 20 | 320 | 0.0 | 0.0 | 0.00 | 0.00 | 0.00 | 55 | 1011.2 |
| 20260504174205 | 20 | 320 | 0.0 | 0.0 | 0.00 | 0.00 | 0.00 | 54 | 1011.2 |
| 20260504173205 | 21 | 320 | 0.0 | 0.0 | 0.00 | 0.00 | 0.00 | 52 | 1011.1 |
| 20260504172704 | 21 | 320 | 0.0 | 0.0 | 0.00 | 0.00 | 0.00 | 53 | 1011.1 |
| 20260504172206 | 21 | 320 | 0.0 | 0.0 | 0.00 | 0.00 | 0.00 | 53 | 1011.1 |
| 20260504171705 | 21 | 320 | 0.0 | 0.0 | 0.00 | 0.00 | 0.00 | 53 | 1011.1 |
| 20260504171205 | 21 | 321 | 0.0 | 6.4 | 0.00 | 0.00 | 0.00 | 52 | 1011.1 |
| 20260504170704 | 21 | 322 | 0.0 | 8.0 | 0.00 | 0.00 | 0.00 | 52 | 1011.1 |
| 20260504160205 | 22 | 284 | 1.6 | 9.7 | 0.00 | 0.00 | 0.00 | 50 | 1011.3 |
| 20260504150705 | 22 | 342 | 0.0 | 9.7 | 0.00 | 0.00 | 0.00 | 50 | 1011.5 |
| 20260504150205 | 22 | 279 | 1.6 | 11.3 | 0.00 | 0.00 | 0.00 | 47 | 1011.5 |
| 20260504141224 | 22 | 278 | 3.2 | 11.3 | 0.00 | 0.00 | 0.00 | 45 | 1011.7 |
| 20260504140705 | 22 | 309 | 3.2 | 14.5 | 0.00 | 0.00 | 0.00 | 47 | 1011.7 |
| 20260504140205 | 23 | 319 | 3.2 | 14.5 | 0.00 | 0.00 | 0.00 | 45 | 1011.7 |
| 20260504130205 | 23 | 341 | 4.8 | 16.1 | 0.00 | 0.00 | 0.00 | 45 | 1012.3 |
| 20260504120205 | 22 | 0 | 4.8 | 14.5 | 0.00 | 0.00 | 0.00 | 47 | 1012.8 |
| 20260504110705 | 21 | 282 | 4.8 | 16.1 | 0.00 | 0.00 | 0.00 | 46 | 1013.2 |
| 20260504100205 | 20 | 271 | 0.0 | 4.8 | 0.00 | 0.00 | 0.00 | 49 | 1013.8 |